SCP
0 0 0 0 0 0 0 0 0 0 0 0 0 0 1 0 0 0 0 0 0 0 0 0 0 0 0 0 0 0 0 0
0 0 0 0 0 0 0 0 0 0 0 0 0 0 0 0 0 0 0 0 0 0 0 0 0 0 0 0 0 0 0 0
0 0 0 0 0 0 0 0 0 0 0 0 0 0 0 0 0 0 0 0 0 0 0 0 0 0 0 0 0 0 0 0
0 0 0 0 0 0 0 0 0 0 0 0 0 0 0 0 0 0 0 0 0 0 0 0 0 0 0 0 0 0 0 0
0 0 0 0 0 0 0 0 0 0 0 0 0 0 0 0 0 0 0 0 0 0 0 0 0 0 0 0 0 0 0 0
0 0 0 0 0 0 0 0 0 0 0 0 0 0 0 0 0 0 0 0 0 0 0 0 0 0 0 0 0 0 0 0
0 0 0 0 0 0 0 0 0 0 0 0 0 -0 -0 -0 -0 -0 0 0 0 0 0 0 0 0 0 0 0 0 0 0
0 0 0 0 0 0 0 -0 0 0 0 0 0 0 0 0 0 0 0 0 0 0 0 0 0 0 0 0 0 0 0 0
0 0 0 0 0 -0 -0 -0 0 0 0 -0 0 0 0 0 0 0 0 -0 0 0 0 0 -0 -0 -0 -0 -0 -0 -0 -0
0 0 0 0 0 0 -0 0 -0 -0 0 0 0 0 0 -0 0 0 0 0 0 0 0 0 0 -0 -0 -0 -0 -0 -0 -0
0 0 0 0 0 0 0 0 0 -0 -0 0 0 0 0 0 0 0 0 0 0 0 0 0 0 0 0 -0 -0 0 -0 -0
0 0 0 0 0 0 0 0 0 0 0 0 0 0 0 0 0 0 0 0 0 0 0 0 0 0 0 -0 0 0 -0 -0
0 0 0 0 0 0 0 0 0 0 0 0 0 0 0 0 0 0 0 0 0 0 0 0 0 0 0 -0 -0 -0 -0 -0
0 0 0 0 0 0 0 0 0 0 0 0 0 0 0 0 0 0 0 0 -0 0 0 -0 0 0 -0 0 0 0 0 -0
0 0 0 0 0 0 0 0 0 0 0 0 0 0 0 0 0 0 0 0 -0 0 -0 0 0 0 0 0 0 0 0 0
0 0 0 0 0 0 0 0 0 0 0 0 0 0 0 0 0 0 -0 -0 -0 0 0 0 0 0 0 0 0 0 -0 -0
0 0 0 0 0 0 0 0 0 0 0 0 0 0 0 0 0 0 0 0 0 0 0 0 0 0 0 0 0 -0 -0 -0
0 0 0 0 0 0 0 0 0 0 0 0 0 0 0 0 0 0 0 0 0 0 0 0 0 -0 -0 -0 -0 -0 -0 -0
0 0 0 0 0 0 0 0 0 0 0 0 0 0 0 0 0 0 0 0 0 0 0 -0 -0 -0 -0 -0 -0 0 0 0
0 0 0 0 0 0 0 -0 0 0 0 0 0 0 0 0 0 0 0 -0 -0 -0 0 -0 -0 -0 -0 -0 0 0 0 0
Wind_Speed_500mb
47 48 56 64 67 66 61 66 57 59 43 46 50 50 52 44 48 43 48 46 49 50 59 56 53 56 49 47 49 52 54 55
58 62 65 63 61 65 69 68 69 61 66 66 51 59 58 66 58 48 51 51 53 49 47 50 49 59 43 49 49 46 43 45
65 66 67 68 74 78 77 75 79 70 61 56 64 53 44 44 49 64 58 48 56 61 64 66 60 65 47 45 42 40 36 36
65 71 77 81 78 77 79 78 82 78 72 72 64 56 61 54 45 39 38 49 62 61 61 69 68 53 46 44 41 30 29 24
81 79 77 79 73 74 76 77 77 60 61 73 56 53 53 48 48 48 60 64 65 68 66 57 47 45 41 39 21 18 16 10
74 71 75 71 74 76 75 75 67 56 58 60 56 44 54 57 57 56 55 59 55 46 43 38 39 36 33 18 10 10 21 24
69 65 82 85 77 72 66 64 63 56 57 57 50 45 53 55 46 46 47 39 34 36 35 32 30 28 14 7 14 34 35 31
78 76 72 65 64 57 54 55 55 53 44 40 39 34 35 34 27 30 27 29 23 20 25 23 18 13 15 29 40 39 37 36
72 65 63 58 50 44 44 42 41 36 30 27 28 29 26 27 27 17 21 19 17 15 13 14 18 23 34 38 38 37 31 31
61 61 60 54 44 41 40 39 37 18 9 12 16 8 10 7 10 5 9 7 13 23 28 32 34 38 37 42 39 25 17 22
59 58 61 56 45 36 31 34 23 14 12 15 10 12 8 7 2 4 9 18 30 37 40 45 43 38 35 32 46 46 48 52
54 56 57 53 44 37 33 29 28 27 24 22 25 20 15 14 18 17 21 27 36 43 48 47 49 60 63 63 54 49 47 44
47 49 48 47 39 35 31 29 28 29 29 27 23 19 24 28 31 29 30 33 36 47 53 61 71 62 42 26 23 25 20 29
42 41 43 44 43 37 32 28 28 31 35 35 37 38 40 43 47 50 47 47 54 57 60 53 44 42 39 32 32 38 44 42
36 33 34 36 39 39 35 33 35 40 45 50 57 65 68 69 71 73 74 62 56 52 58 62 63 63 56 52 49 40 41 38
30 29 31 33 35 38 35 38 49 72 77 70 69 68 72 71 67 59 60 69 72 66 60 56 51 46 41 41 46 40 46 48
31 33 35 36 38 38 37 54 70 70 65 56 44 45 48 49 51 59 71 73 72 65 60 56 54 53 52 49 48 47 45 45
32 38 37 41 45 42 49 63 66 66 63 56 51 50 49 48 48 47 46 45 42 40 38 39 42 42 46 48 48 48 48 47
27 31 32 33 39 42 56 54 57 62 64 54 44 43 43 41 43 44 41 40 42 44 47 42 42 45 45 46 47 47 47 47
26 27 28 28 32 39 55 63 52 50 52 42 39 40 40 42 43 43 44 44 44 44 43 41 39 43 43 42 42 41 37 38
Wind_Direction_500mb
342 335 328 324 322 322 320 313 318 306 301 303 284 278 277 269 273 272 277 281 287 286 285 284 291 284 284 283 286 290 294 299
330 328 323 319 315 310 309 311 309 302 293 289 289 285 282 276 278 281 287 284 283 280 279 279 283 299 293 282 287 287 286 291
322 320 319 315 312 308 304 299 291 293 285 293 286 291 294 287 285 274 280 284 270 274 273 272 274 289 289 288 288 286 283 275
318 313 308 307 307 304 301 296 294 289 291 285 280 287 285 279 285 285 278 276 283 283 279 277 278 281 277 281 285 281 264 283
316 312 308 306 304 304 304 305 293 297 297 283 273 281 285 289 283 273 275 275 277 278 281 281 279 273 274 276 272 262 258 174
313 313 310 308 304 303 300 293 287 297 286 286 284 280 271 275 275 274 275 281 284 278 279 272 269 273 274 253 250 205 151 131
315 313 309 308 305 304 301 294 287 286 282 277 275 274 272 274 276 279 277 273 271 271 264 265 270 272 234 179 162 150 139 130
318 318 316 318 319 313 301 295 291 284 280 279 274 280 271 267 264 272 273 278 280 296 260 264 256 190 150 155 154 148 135 129
327 330 333 334 331 329 318 314 306 300 281 267 262 256 263 260 264 274 266 265 283 256 220 168 148 144 151 149 139 131 128 130
341 344 348 351 349 344 336 331 313 291 267 254 247 247 252 312 237 217 278 253 190 146 138 130 128 134 137 125 123 115 110 118
351 356 358 2 6 358 3 12 42 83 93 101 109 113 107 70 134 195 150 155 142 137 130 124 119 119 123 123 105 100 103 93
357 5 8 9 17 23 35 43 60 79 90 96 105 97 107 102 110 118 130 133 132 128 127 120 114 108 105 91 89 91 84 78
7 11 15 16 28 38 42 54 67 77 85 94 104 105 100 100 104 110 118 122 130 128 120 116 110 101 88 90 76 85 86 75
14 19 27 31 41 49 54 59 72 85 90 92 97 99 101 101 99 97 89 92 98 102 101 92 90 87 87 99 103 92 86 74
21 28 34 44 51 54 59 72 83 86 92 96 96 96 96 98 97 95 93 91 92 92 93 93 92 95 95 87 77 71 70 78
36 42 51 54 61 64 69 81 89 97 92 87 87 92 92 89 82 83 89 94 93 91 87 83 81 81 84 83 83 76 74 70
54 60 62 69 73 77 87 104 103 97 90 92 96 87 86 90 92 90 92 92 90 88 86 83 79 77 76 76 75 73 72 69
63 66 73 82 88 94 107 115 106 96 93 93 95 92 90 91 94 93 94 88 86 82 76 72 77 79 76 74 72 71 69 67
79 83 85 92 99 105 121 112 103 95 90 87 88 88 92 91 90 90 90 91 88 86 85 84 82 81 77 74 71 70 66 63
92 87 82 97 106 115 117 96 90 82 79 83 84 87 90 92 94 93 92 92 91 89 85 83 83 81 78 75 74 72 74 79
Wind_Speed_850mb
47 48 56 64 67 66 61 66 57 59 43 46 50 50 52 44 48 43 48 46 49 50 59 56 53 56 49 47 49 52 54 55
58 62 65 63 61 65 69 68 69 61 66 66 51 59 58 66 58 48 51 51 53 49 47 50 49 59 43 49 49 46 43 45
65 66 67 68 74 78 77 75 79 70 61 56 64 53 44 44 49 64 58 48 56 61 64 66 60 65 47 45 42 40 36 36
65 71 77 81 78 77 79 78 82 78 72 72 64 56 61 54 45 39 38 49 62 61 61 69 68 53 46 44 41 30 29 24
81 79 77 79 73 74 76 77 77 60 61 73 56 53 53 48 48 48 60 64 65 68 66 57 47 45 41 39 21 18 16 10
74 71 75 71 74 76 75 75 67 56 58 60 56 44 54 57 57 56 55 59 55 46 43 38 39 36 33 18 10 10 21 24
69 65 82 85 77 72 66 64 63 56 57 57 50 45 53 55 46 46 47 39 34 36 35 32 30 28 14 7 14 34 35 31
78 76 72 65 64 57 54 55 55 53 44 40 39 34 35 34 27 30 27 29 23 20 25 23 18 13 15 29 40 39 37 36
72 65 63 58 50 44 44 42 41 36 30 27 28 29 26 27 27 17 21 19 17 15 13 14 18 23 34 38 38 37 31 31
61 61 60 54 44 41 40 39 37 18 9 12 16 8 10 7 10 5 9 7 13 23 28 32 34 38 37 42 39 25 17 22
59 58 61 56 45 36 31 34 23 14 12 15 10 12 8 7 2 4 9 18 30 37 40 45 43 38 35 32 46 46 48 52
54 56 57 53 44 37 33 29 28 27 24 22 25 20 15 14 18 17 21 27 36 43 48 47 49 60 63 63 54 49 47 44
47 49 48 47 39 35 31 29 28 29 29 27 23 19 24 28 31 29 30 33 36 47 53 61 71 62 42 26 23 25 20 29
42 41 43 44 43 37 32 28 28 31 35 35 37 38 40 43 47 50 47 47 54 57 60 53 44 42 39 32 32 38 44 42
36 33 34 36 39 39 35 33 35 40 45 50 57 65 68 69 71 73 74 62 56 52 58 62 63 63 56 52 49 40 41 38
30 29 31 33 35 38 35 38 49 72 77 70 69 68 72 71 67 59 60 69 72 66 60 56 51 46 41 41 46 40 46 48
31 33 35 36 38 38 37 54 70 70 65 56 44 45 48 49 51 59 71 73 72 65 60 56 54 53 52 49 48 47 45 45
32 38 37 41 45 42 49 63 66 66 63 56 51 50 49 48 48 47 46 45 42 40 38 39 42 42 46 48 48 48 48 47
27 31 32 33 39 42 56 54 57 62 64 54 44 43 43 41 43 44 41 40 42 44 47 42 42 45 45 46 47 47 47 47
26 27 28 28 32 39 55 63 52 50 52 42 39 40 40 42 43 43 44 44 44 44 43 41 39 43 43 42 42 41 37 38
Wind_Direction_850mb
342 335 328 324 322 322 320 313 318 306 301 303 284 278 277 269 273 272 277 281 287 286 285 284 291 284 284 283 286 290 294 299
330 328 323 319 315 310 309 311 309 302 293 289 289 285 282 276 278 281 287 284 283 280 279 279 283 299 293 282 287 287 286 291
322 320 319 315 312 308 304 299 291 293 285 293 286 291 294 287 285 274 280 284 270 274 273 272 274 289 289 288 288 286 283 275
318 313 308 307 307 304 301 296 294 289 291 285 280 287 285 279 285 285 278 276 283 283 279 277 278 281 277 281 285 281 264 283
316 312 308 306 304 304 304 305 293 297 297 283 273 281 285 289 283 273 275 275 277 278 281 281 279 273 274 276 272 262 258 174
313 313 310 308 304 303 300 293 287 297 286 286 284 280 271 275 275 274 275 281 284 278 279 272 269 273 274 253 250 205 151 131
315 313 309 308 305 304 301 294 287 286 282 277 275 274 272 274 276 279 277 273 271 271 264 265 270 272 234 179 162 150 139 130
318 318 316 318 319 313 301 295 291 284 280 279 274 280 271 267 264 272 273 278 280 296 260 264 256 190 150 155 154 148 135 129
327 330 333 334 331 329 318 314 306 300 281 267 262 256 263 260 264 274 266 265 283 256 220 168 148 144 151 149 139 131 128 130
341 344 348 351 349 344 336 331 313 291 267 254 247 247 252 312 237 217 278 253 190 146 138 130 128 134 137 125 123 115 110 118
351 356 358 2 6 358 3 12 42 83 93 101 109 113 107 70 134 195 150 155 142 137 130 124 119 119 123 123 105 100 103 93
357 5 8 9 17 23 35 43 60 79 90 96 105 97 107 102 110 118 130 133 132 128 127 120 114 108 105 91 89 91 84 78
7 11 15 16 28 38 42 54 67 77 85 94 104 105 100 100 104 110 118 122 130 128 120 116 110 101 88 90 76 85 86 75
14 19 27 31 41 49 54 59 72 85 90 92 97 99 101 101 99 97 89 92 98 102 101 92 90 87 87 99 103 92 86 74
21 28 34 44 51 54 59 72 83 86 92 96 96 96 96 98 97 95 93 91 92 92 93 93 92 95 95 87 77 71 70 78
36 42 51 54 61 64 69 81 89 97 92 87 87 92 92 89 82 83 89 94 93 91 87 83 81 81 84 83 83 76 74 70
54 60 62 69 73 77 87 104 103 97 90 92 96 87 86 90 92 90 92 92 90 88 86 83 79 77 76 76 75 73 72 69
63 66 73 82 88 94 107 115 106 96 93 93 95 92 90 91 94 93 94 88 86 82 76 72 77 79 76 74 72 71 69 67
79 83 85 92 99 105 121 112 103 95 90 87 88 88 92 91 90 90 90 91 88 86 85 84 82 81 77 74 71 70 66 63
92 87 82 97 106 115 117 96 90 82 79 83 84 87 90 92 94 93 92 92 91 89 85 83 83 81 78 75 74 72 74 79